AirNav   Everest Fuels
 
 312 users online  

PA40 Benton Airport
Benton, Pennsylvania, USA

GOING TO BENTON?


FAA INFORMATION EFFECTIVE 07 NOVEMBER 2019

Location

FAA Identifier: PA40
Lat/Long: 41-12-00.3010N 076-23-13.7900W
41-12.005017N 076-23.229833W
41.2000836,-76.3871639
(estimated)
Elevation: 780 ft. / 238 m (estimated)
Variation: 11W (1985)
From city: 4 miles W of BENTON, PA
Time zone: UTC -5 (UTC -4 during Daylight Saving Time)
Zip code: 17814

Airport Operations

Airport use: Private use. Permission required prior to landing
Activation date: 04/1947
Control tower: no
ARTCC: NEW YORK CENTER
FSS: WILLIAMSPORT FLIGHT SERVICE STATION
Attendance: UNATNDD
Wind indicator: yes
Segmented circle: no

Airport Communications

WX AWOS-3 at 79PN (17 nm SW): 118.075 (570-271-8192)

Nearby radio navigation aids

VOR radial/distance  VOR name  Freq  Var
MIPr059/16.4MILTON VORTAC109.2009W
FQMr124/19.4WILLIAMSPORT VOR/DME114.4009W
LVZr272/31.8WILKES-BARRE VORTAC111.6010W
SEGr051/33.3SELINSGROVE VOR/DME110.4008W
RAVr025/40.0RAVINE VORTAC114.6011W

Airport Services

Airframe service: NONE
Powerplant service: NONE

Runway Information

Runway 3/21

Dimensions: 2200 x 150 ft. / 671 x 46 m
Surface: turf
RUNWAY 3  RUNWAY 21
Traffic pattern: leftleft
Obstructions: 35 ft. trees, 26 ft. from runway16 ft. road, 77 ft. from runway

Airport Ownership and Management from official FAA records

Ownership: Publicly-owned
Owner: BENTON AIRPORT ASSOCIATION, LLC
4350 RED ROCK ROAD, ATTN: BOB BREWINGTON
BENTON, PA 17814
Phone 570-204-1977
ROBERT BREWINGTON, PRESIDENT
Manager: MONTY HITTLE
4350 RED ROCK ROAD, APT B
BENTON, PA 17814
Phone (570) 317-7073

Airport Operational Statistics

Aircraft based on the field: 8
Single engine airplanes: 8
    

Additional Remarks

FOR CD CTC NEW YORK ARTCC AT 631-468-1425.

Instrument Procedures

There are no published instrument procedures at PA40.

Some nearby airports with instrument procedures:

N13 - Bloomsburg Municipal Airport (12 nm S)
8N8 - Danville Airport (19 nm SW)
KHZL - Hazleton Regional Airport (22 nm SE)
N79 - Northumberland County Airport (23 nm S)
KIPT - Williamsport Regional Airport (24 nm W)
 
Loc | Ops | Rwys | IFR | FBO | Links
Com | Nav | Svcs | Stats | Notes
Area around PA40 (Benton Airport)
 
Road maps at: MapQuest Bing Google
 
Aerial photo
WARNING: Photo may not be current or correct
Aerial photo of PA40 (Benton Airport)
Photo taken 10-Apr-2005

Do you have a better or more recent aerial photo of Benton Airport that you would like to share? If so, please send us your photo.

 
Sectional chart

 
Airport distance calculator
Flying to Benton Airport? Find the distance to fly.

From to PA40

Sunrise and sunset
Times for 12-Nov-2019
 Local
(UTC-5)
 Zulu
(UTC)
Morning civil twilight06:2211:22
Sunrise06:5111:51
Sunset16:4921:49
Evening civil twilight17:1822:18

Current date and time
Zulu (UTC)  12-Nov-2019 08:33:40
Local (UTC-5)  12-Nov-2019 03:33:40
 
METAR
KHZL 
22nm SE 
120816Z AUTO 29007KT 7SM -RA BKN005 BKN022 OVC060 07/05 A2973 RMK AO2 P0001
KIPT 
24nm W 
120754Z AUTO 28005KT 5SM -RA BR OVC008 03/01 A2978 RMK AO2 CIG 005V010 SLP085 P0005 T00280011
KAVP 
31nm E 
120818Z 29007KT 5SM RA BR FEW005 OVC010 02/00 A2974 RMK AO2 P0002 T00220000 $
KSEG 
32nm SW 
120753Z AUTO 36003KT 7SM -RA BKN038 OVC055 07/06 A2975 RMK AO2 SLP074 P0003 T00670056
K22N 
37nm SE 
120815Z AUTO 00000KT 10SM -RA OVC090 06/06 A2971 RMK AO2
TAF
KIPT 
24nm W 
120828Z 1208/1306 28008KT 4SM -RA BR OVC008 FM121000 31010G20KT 2SM -SN OVC012 FM121100 31012G22KT P6SM OVC035 FM121900 32015G25KT P6SM BKN050 FM130000 31010G20KT P6SM FEW060
NOTAMs
Click for the latest NOTAMs
NOTAMs are issued by the DoD/FAA and will open in a separate window not controlled by AirNav.

 

 
 

Would you like to see your business listed on this page?

 If your business provides an interesting product or service to pilots, flight crews, aircraft, or users of the Benton Airport, you should consider listing it here.  To start the listing process, click on the button below
 
Add a business
 

Other Pages about Benton Airport

Update a link
 
Copyright © AirNav, LLC. All rights reserved. Privacy Policy  Contact